Time,TemperatureF,DewpointF,PressureIn,WindDirection,WindDirectionDegrees,WindSpeedMPH,WindSpeedGustMPH,Humidity,HourlyPrecipIn,Conditions,Clouds,dailyrainin,SolarRadiationWatts/m^2,SoftwareType,DateUTC
2013-07-16 00:00:00,55.9,51.8,30.00,WSW,246,6.0,10.0,86,0.00,,,0.00,0.0,meteohub,2013-07-16 07:00:00,
2013-07-16 00:05:00,55.9,51.8,30.00,WSW,247,5.0,10.0,86,0.00,,,0.00,0.0,meteohub,2013-07-16 07:05:00,
2013-07-16 00:10:00,55.9,51.8,30.00,WSW,254,4.0,10.0,86,0.00,,,0.00,0.0,meteohub,2013-07-16 07:10:00,
2013-07-16 00:15:00,55.9,51.8,30.00,WSW,252,7.0,10.0,86,0.00,,,0.00,0.0,meteohub,2013-07-16 07:15:00,
2013-07-16 00:20:00,55.9,51.8,30.00,WSW,239,8.0,10.0,86,0.00,,,0.00,0.0,meteohub,2013-07-16 07:20:00,
2013-07-16 00:25:00,55.9,52.2,29.99,WSW,244,9.0,10.0,87,0.00,,,0.00,0.0,meteohub,2013-07-16 07:25:00,
2013-07-16 00:31:00,55.9,52.2,29.99,WSW,244,5.0,10.0,87,0.00,,,0.00,0.0,meteohub,2013-07-16 07:31:00,
2013-07-16 00:36:00,55.9,52.2,29.99,WSW,252,5.0,10.0,87,0.00,,,0.00,0.0,meteohub,2013-07-16 07:36:00,
2013-07-16 00:41:00,55.9,52.2,29.99,WSW,241,4.0,10.0,87,0.00,,,0.00,0.0,meteohub,2013-07-16 07:41:00,
2013-07-16 00:46:00,56.1,52.3,29.99,SW,227,0.0,10.0,87,0.00,,,0.00,0.0,meteohub,2013-07-16 07:46:00,
2013-07-16 00:51:00,56.1,52.3,30.00,SW,215,5.0,7.0,87,0.00,,,0.00,0.0,meteohub,2013-07-16 07:51:00,
2013-07-16 00:56:00,56.1,52.3,30.00,West,261,3.0,8.0,87,0.00,,,0.00,0.0,meteohub,2013-07-16 07:56:00,
2013-07-16 01:01:00,56.3,52.5,30.00,WSW,240,0.0,8.0,87,0.00,,,0.00,0.0,meteohub,2013-07-16 08:01:00,
2013-07-16 01:06:00,56.3,52.5,30.00,West,259,2.0,6.0,87,0.00,,,0.00,0.0,meteohub,2013-07-16 08:06:00,
2013-07-16 01:11:00,56.5,52.3,30.00,SW,232,4.0,8.0,86,0.00,,,0.00,0.0,meteohub,2013-07-16 08:11:00,
2013-07-16 01:16:00,56.3,52.2,29.99,SW,236,6.0,10.0,86,0.00,,,0.00,0.0,meteohub,2013-07-16 08:16:00,
2013-07-16 01:21:00,56.1,52.3,30.00,West,264,3.0,10.0,87,0.00,,,0.00,0.0,meteohub,2013-07-16 08:21:00,
2013-07-16 01:26:00,56.1,52.3,30.00,SW,215,3.0,10.0,87,0.00,,,0.00,0.0,meteohub,2013-07-16 08:26:00,
2013-07-16 01:31:00,56.1,52.3,30.00,WSW,240,4.0,10.0,87,0.00,,,0.00,0.0,meteohub,2013-07-16 08:31:00,
2013-07-16 01:36:00,56.3,52.5,30.00,West,274,1.0,10.0,87,0.00,,,0.00,0.0,meteohub,2013-07-16 08:36:00,
2013-07-16 01:41:00,56.3,52.5,30.00,SW,234,4.0,10.0,87,0.00,,,0.00,0.0,meteohub,2013-07-16 08:41:00,
2013-07-16 01:46:00,56.3,52.5,30.00,SW,224,3.0,10.0,87,0.00,,,0.00,0.0,meteohub,2013-07-16 08:46:00,
2013-07-16 01:51:00,56.3,52.5,30.00,SW,227,3.0,8.0,87,0.00,,,0.00,0.0,meteohub,2013-07-16 08:51:00,
2013-07-16 01:56:00,56.5,52.7,30.00,WSW,247,6.0,8.0,87,0.00,,,0.00,0.0,meteohub,2013-07-16 08:56:00,
2013-07-16 02:02:00,56.5,52.3,30.00,WSW,246,8.0,8.0,86,0.00,,,0.00,0.0,meteohub,2013-07-16 09:02:00,
2013-07-16 02:07:00,56.5,52.3,30.00,WSW,246,7.0,9.0,86,0.00,,,0.00,0.0,meteohub,2013-07-16 09:07:00,
2013-07-16 02:12:00,56.5,52.3,30.00,SW,226,4.0,10.0,86,0.00,,,0.00,0.0,meteohub,2013-07-16 09:12:00,
2013-07-16 02:17:00,56.5,52.7,30.00,West,262,1.0,10.0,87,0.00,,,0.00,0.0,meteohub,2013-07-16 09:17:00,
2013-07-16 02:22:00,56.5,52.7,30.00,WSW,243,4.0,12.0,87,0.00,,,0.00,0.0,meteohub,2013-07-16 09:22:00,
2013-07-16 02:27:00,56.5,52.7,30.00,West,260,4.0,12.0,87,0.00,,,0.00,0.0,meteohub,2013-07-16 09:27:00,
2013-07-16 02:32:00,56.3,52.5,30.00,NW,311,3.0,9.0,87,0.00,,,0.00,0.0,meteohub,2013-07-16 09:32:00,
2013-07-16 02:37:00,56.3,52.5,30.00,WSW,251,4.0,11.0,87,0.00,,,0.00,0.0,meteohub,2013-07-16 09:37:00,
2013-07-16 02:42:00,56.3,52.5,30.00,West,263,3.0,11.0,87,0.00,,,0.00,0.0,meteohub,2013-07-16 09:42:00,
2013-07-16 02:47:00,56.5,52.7,30.00,SW,230,5.0,11.0,87,0.00,,,0.00,0.0,meteohub,2013-07-16 09:47:00,
2013-07-16 02:52:00,56.3,52.5,30.00,WSW,248,4.0,7.0,87,0.00,,,0.00,0.0,meteohub,2013-07-16 09:52:00,
2013-07-16 02:57:00,56.3,52.5,30.00,SW,232,7.0,7.0,87,0.00,,,0.00,0.0,meteohub,2013-07-16 09:57:00,
2013-07-16 03:02:00,56.3,52.5,30.00,West,259,6.0,11.0,87,0.00,,,0.00,0.0,meteohub,2013-07-16 10:02:00,
2013-07-16 03:07:00,56.1,52.3,30.00,WSW,241,5.0,11.0,87,0.00,,,0.00,0.0,meteohub,2013-07-16 10:07:00,
2013-07-16 03:12:00,56.1,52.3,30.00,WSW,244,3.0,11.0,87,0.00,,,0.00,0.0,meteohub,2013-07-16 10:12:00,
2013-07-16 03:17:00,56.1,52.3,30.00,WSW,246,4.0,10.0,87,0.00,,,0.00,0.0,meteohub,2013-07-16 10:17:00,
2013-07-16 03:22:00,56.1,52.3,30.00,SW,234,6.0,10.0,87,0.00,,,0.00,0.0,meteohub,2013-07-16 10:22:00,
2013-07-16 03:27:00,56.1,52.3,30.00,WSW,254,1.0,10.0,87,0.00,,,0.00,0.0,meteohub,2013-07-16 10:27:00,
2013-07-16 03:32:00,56.1,52.3,30.00,SW,234,4.0,9.0,87,0.00,,,0.00,0.0,meteohub,2013-07-16 10:32:00,
2013-07-16 03:37:00,56.1,52.3,30.00,WSW,255,6.0,8.0,87,0.00,,,0.00,0.0,meteohub,2013-07-16 10:37:00,
2013-07-16 03:42:00,56.1,52.0,30.00,WSW,251,5.0,9.0,86,0.00,,,0.00,0.0,meteohub,2013-07-16 10:42:00,
2013-07-16 03:47:00,55.9,51.8,30.00,WSW,242,2.0,9.0,86,0.00,,,0.00,0.0,meteohub,2013-07-16 10:47:00,
2013-07-16 03:52:00,55.9,51.8,30.00,SW,231,7.0,9.0,86,0.00,,,0.00,0.0,meteohub,2013-07-16 10:52:00,
2013-07-16 03:57:00,55.9,51.8,30.00,WSW,252,7.0,12.0,86,0.00,,,0.00,0.0,meteohub,2013-07-16 10:57:00,
2013-07-16 04:02:00,55.8,52.0,30.00,WSW,240,4.0,12.0,87,0.00,,,0.00,0.0,meteohub,2013-07-16 11:02:00,
2013-07-16 04:07:00,55.8,52.0,30.00,West,259,4.0,12.0,87,0.00,,,0.00,0.0,meteohub,2013-07-16 11:07:00,
2013-07-16 04:12:00,55.8,52.0,30.00,WSW,248,4.0,11.0,87,0.00,,,0.00,0.0,meteohub,2013-07-16 11:12:00,
2013-07-16 04:17:00,55.8,52.0,30.00,WSW,246,3.0,9.0,87,0.00,,,0.00,0.0,meteohub,2013-07-16 11:17:00,
2013-07-16 04:22:00,55.8,52.0,30.00,SW,221,4.0,9.0,87,0.00,,,0.00,0.0,meteohub,2013-07-16 11:22:00,
2013-07-16 04:27:00,55.8,52.0,30.00,WSW,246,2.0,8.0,87,0.00,,,0.00,0.0,meteohub,2013-07-16 11:27:00,
2013-07-16 04:32:00,55.8,51.6,30.00,SSW,206,7.0,8.0,86,0.00,,,0.00,0.0,meteohub,2013-07-16 11:32:00,
2013-07-16 04:37:00,55.8,51.6,30.00,WSW,250,2.0,13.0,86,0.00,,,0.00,0.0,meteohub,2013-07-16 11:37:00,
2013-07-16 04:42:00,55.8,51.6,30.01,WSW,245,6.0,13.0,86,0.00,,,0.00,0.0,meteohub,2013-07-16 11:42:00,
2013-07-16 04:47:00,55.8,51.6,30.01,West,261,4.0,11.0,86,0.00,,,0.00,0.0,meteohub,2013-07-16 11:47:00,
2013-07-16 04:52:00,55.8,51.6,30.01,WSW,244,5.0,10.0,86,0.00,,,0.00,0.0,meteohub,2013-07-16 11:52:00,
2013-07-16 04:57:00,55.8,51.6,30.01,West,263,5.0,9.0,86,0.00,,,0.00,0.0,meteohub,2013-07-16 11:57:00,
2013-07-16 05:02:00,55.6,51.4,30.01,WSW,250,4.0,8.0,86,0.00,,,0.00,0.0,meteohub,2013-07-16 12:02:00,
2013-07-16 05:07:00,55.6,51.4,30.01,WSW,243,4.0,13.0,86,0.00,,,0.00,0.0,meteohub,2013-07-16 12:07:00,
2013-07-16 05:12:00,55.4,51.3,30.01,WSW,241,5.0,13.0,86,0.00,,,0.00,0.0,meteohub,2013-07-16 12:12:00,
2013-07-16 05:18:00,55.6,51.4,30.01,SW,236,9.0,13.0,86,0.00,,,0.00,0.0,meteohub,2013-07-16 12:18:00,
2013-07-16 05:23:00,55.4,51.3,30.01,SW,221,4.0,11.0,86,0.00,,,0.00,0.0,meteohub,2013-07-16 12:23:00,
2013-07-16 05:28:00,55.4,51.3,30.01,WSW,237,6.0,11.0,86,0.00,,,0.00,0.0,meteohub,2013-07-16 12:28:00,
2013-07-16 05:33:00,55.4,51.3,30.01,WSW,241,4.0,11.0,86,0.00,,,0.00,0.0,meteohub,2013-07-16 12:33:00,
2013-07-16 05:38:00,55.4,50.9,30.02,WSW,254,7.0,11.0,85,0.00,,,0.00,0.0,meteohub,2013-07-16 12:38:00,
2013-07-16 05:43:00,55.4,50.9,30.02,WNW,285,2.0,12.0,85,0.00,,,0.00,0.0,meteohub,2013-07-16 12:43:00,
2013-07-16 05:48:00,55.4,50.9,30.02,WSW,248,4.0,12.0,85,0.00,,,0.00,0.0,meteohub,2013-07-16 12:48:00,
2013-07-16 05:53:00,55.4,50.9,30.02,SW,223,7.0,12.0,85,0.00,,,0.00,0.0,meteohub,2013-07-16 12:53:00,
2013-07-16 05:58:00,55.4,50.9,30.02,WSW,254,4.0,10.0,85,0.00,,,0.00,0.0,meteohub,2013-07-16 12:58:00,
2013-07-16 06:03:00,55.6,51.1,30.02,West,273,3.0,12.0,85,0.00,,,0.00,0.0,meteohub,2013-07-16 13:03:00,
2013-07-16 06:08:00,55.6,51.1,30.03,WSW,255,3.0,12.0,85,0.00,,,0.00,0.0,meteohub,2013-07-16 13:08:00,
2013-07-16 06:13:00,55.6,51.1,30.03,West,273,4.0,11.0,85,0.00,,,0.00,0.0,meteohub,2013-07-16 13:13:00,
2013-07-16 06:18:00,55.6,51.1,30.03,SW,215,5.0,12.0,85,0.00,,,0.00,5.0,meteohub,2013-07-16 13:18:00,
2013-07-16 06:23:00,55.6,51.1,30.03,WSW,255,3.0,12.0,85,0.00,,,0.00,7.0,meteohub,2013-07-16 13:23:00,
2013-07-16 06:28:00,55.8,51.3,30.03,WSW,252,4.0,12.0,85,0.00,,,0.00,11.0,meteohub,2013-07-16 13:28:00,
2013-07-16 06:34:00,55.8,51.3,30.03,West,265,4.0,11.0,85,0.00,,,0.00,12.0,meteohub,2013-07-16 13:34:00,
2013-07-16 06:39:00,55.9,51.3,30.03,West,264,1.0,9.0,84,0.00,,,0.00,16.0,meteohub,2013-07-16 13:39:00,
2013-07-16 06:44:00,55.9,51.3,30.03,West,265,8.0,15.0,84,0.00,,,0.00,21.0,meteohub,2013-07-16 13:44:00,
2013-07-16 06:49:00,55.9,51.3,30.03,WSW,240,6.0,15.0,84,0.00,,,0.00,23.0,meteohub,2013-07-16 13:49:00,
2013-07-16 06:54:00,56.1,51.4,30.03,West,271,5.0,15.0,84,0.00,,,0.00,30.0,meteohub,2013-07-16 13:54:00,
2013-07-16 06:59:00,56.1,51.4,30.04,West,275,5.0,15.0,84,0.00,,,0.00,35.0,meteohub,2013-07-16 13:59:00,
2013-07-16 07:04:00,56.5,51.4,30.04,WSW,248,1.0,15.0,83,0.00,,,0.00,49.0,meteohub,2013-07-16 14:04:00,
2013-07-16 07:10:00,56.5,51.4,30.04,WSW,250,3.0,12.0,83,0.00,,,0.00,40.0,meteohub,2013-07-16 14:10:00,
2013-07-16 07:15:00,56.7,51.6,30.04,WSW,238,5.0,12.0,83,0.00,,,0.00,49.0,meteohub,2013-07-16 14:15:00,
2013-07-16 07:20:00,56.7,51.6,30.04,WSW,242,4.0,10.0,83,0.00,,,0.00,70.0,meteohub,2013-07-16 14:20:00,
2013-07-16 07:25:00,56.7,51.3,30.04,SW,225,6.0,13.0,82,0.00,,,0.00,74.0,meteohub,2013-07-16 14:25:00,
2013-07-16 07:30:00,56.8,51.4,30.04,WSW,244,4.0,13.0,82,0.00,,,0.00,77.0,meteohub,2013-07-16 14:30:00,
2013-07-16 07:35:00,56.8,51.4,30.05,WSW,257,7.0,12.0,82,0.00,,,0.00,76.0,meteohub,2013-07-16 14:35:00,
2013-07-16 07:40:00,57.0,51.6,30.05,WSW,248,3.0,10.0,82,0.00,,,0.00,69.0,meteohub,2013-07-16 14:40:00,
2013-07-16 07:45:00,57.2,51.8,30.05,SW,236,2.0,9.0,82,0.00,,,0.00,67.0,meteohub,2013-07-16 14:45:00,
2013-07-16 07:51:00,57.0,51.6,30.05,WNW,282,6.0,9.0,82,0.00,,,0.00,77.0,meteohub,2013-07-16 14:51:00,
2013-07-16 07:56:00,57.0,51.6,30.06,West,259,5.0,12.0,82,0.00,,,0.00,76.0,meteohub,2013-07-16 14:56:00,
2013-07-16 08:01:00,56.8,51.4,30.06,West,270,5.0,12.0,82,0.00,,,0.00,77.0,meteohub,2013-07-16 15:01:00,
2013-07-16 08:06:00,56.8,51.4,30.06,WSW,244,5.0,12.0,82,0.00,,,0.00,83.0,meteohub,2013-07-16 15:06:00,
2013-07-16 08:11:00,56.8,51.4,30.06,WSW,250,6.0,11.0,82,0.00,,,0.00,90.0,meteohub,2013-07-16 15:11:00,
2013-07-16 08:16:00,56.7,51.3,30.06,WSW,243,6.0,12.0,82,0.00,,,0.00,91.0,meteohub,2013-07-16 15:16:00,
2013-07-16 08:22:00,56.7,51.3,30.06,WSW,257,3.0,12.0,82,0.00,,,0.00,105.0,meteohub,2013-07-16 15:22:00,
2013-07-16 08:27:00,56.5,51.1,30.06,West,264,5.0,12.0,82,0.00,,,0.00,100.0,meteohub,2013-07-16 15:27:00,
2013-07-16 08:32:00,56.5,51.1,30.06,WSW,254,4.0,13.0,82,0.00,,,0.00,91.0,meteohub,2013-07-16 15:32:00,
2013-07-16 08:37:00,56.5,51.1,30.07,West,269,3.0,13.0,82,0.00,,,0.00,102.0,meteohub,2013-07-16 15:37:00,
2013-07-16 08:42:00,56.5,51.1,30.07,SSW,213,5.0,13.0,82,0.00,,,0.00,111.0,meteohub,2013-07-16 15:42:00,
2013-07-16 08:47:00,56.7,51.3,30.07,WSW,247,1.0,10.0,82,0.00,,,0.00,116.0,meteohub,2013-07-16 15:47:00,
2013-07-16 08:52:00,56.7,50.9,30.07,WSW,250,9.0,11.0,81,0.00,,,0.00,113.0,meteohub,2013-07-16 15:52:00,
2013-07-16 08:57:00,56.7,50.9,30.08,WSW,242,7.0,11.0,81,0.00,,,0.00,127.0,meteohub,2013-07-16 15:57:00,
2013-07-16 09:02:00,56.7,50.9,30.08,West,263,4.0,13.0,81,0.00,,,0.00,130.0,meteohub,2013-07-16 16:02:00,
2013-07-16 09:07:00,56.7,50.9,30.08,SW,228,4.0,13.0,81,0.00,,,0.00,134.0,meteohub,2013-07-16 16:07:00,
2013-07-16 09:13:00,56.8,50.7,30.08,SW,216,6.0,13.0,80,0.00,,,0.00,141.0,meteohub,2013-07-16 16:13:00,
2013-07-16 09:18:00,56.8,50.7,30.09,SSW,213,7.0,11.0,80,0.00,,,0.00,146.0,meteohub,2013-07-16 16:18:00,
2013-07-16 09:23:00,57.0,50.9,30.09,SSW,196,5.0,11.0,80,0.00,,,0.00,155.0,meteohub,2013-07-16 16:23:00,
2013-07-16 09:28:00,57.0,50.9,30.09,West,265,4.0,11.0,80,0.00,,,0.00,176.0,meteohub,2013-07-16 16:28:00,
2013-07-16 09:33:00,57.4,51.3,30.09,SW,236,6.0,12.0,80,0.00,,,0.00,160.0,meteohub,2013-07-16 16:33:00,
2013-07-16 09:39:00,57.4,50.9,30.09,WSW,255,5.0,13.0,79,0.00,,,0.00,169.0,meteohub,2013-07-16 16:39:00,
2013-07-16 09:44:00,57.2,50.7,30.09,WSW,238,7.0,13.0,79,0.00,,,0.00,179.0,meteohub,2013-07-16 16:44:00,
2013-07-16 09:49:00,57.4,50.9,30.09,SW,236,6.0,13.0,79,0.00,,,0.00,202.0,meteohub,2013-07-16 16:49:00,
2013-07-16 09:57:00,57.6,50.7,30.09,WNW,300,5.0,13.0,78,0.00,,,0.00,216.0,meteohub,2013-07-16 16:57:00,
2013-07-16 10:02:00,57.7,50.9,30.09,SSW,212,7.0,14.0,78,0.00,,,0.00,230.0,meteohub,2013-07-16 17:02:00,
2013-07-16 10:07:00,57.9,51.1,30.09,West,261,4.0,14.0,78,0.00,,,0.00,234.0,meteohub,2013-07-16 17:07:00,
2013-07-16 10:12:00,58.3,51.1,30.09,SW,234,6.0,14.0,77,0.00,,,0.00,246.0,meteohub,2013-07-16 17:12:00,
2013-07-16 10:17:00,58.5,50.9,30.09,West,279,6.0,13.0,76,0.00,,,0.00,267.0,meteohub,2013-07-16 17:17:00,
2013-07-16 10:23:00,58.1,50.5,30.09,SW,219,10.0,13.0,76,0.00,,,0.00,257.0,meteohub,2013-07-16 17:23:00,
2013-07-16 10:27:00,57.9,50.7,30.10,WSW,240,8.0,13.0,77,0.00,,,0.00,257.0,meteohub,2013-07-16 17:27:00,
2013-07-16 10:32:00,58.1,50.9,30.10,WSW,254,10.0,13.0,77,0.00,,,0.00,260.0,meteohub,2013-07-16 17:32:00,
2013-07-16 10:42:00,57.7,50.5,30.11,WSW,238,7.0,15.0,77,0.00,,,0.00,278.0,meteohub,2013-07-16 17:42:00,
2013-07-16 10:47:00,57.9,50.7,30.11,SW,220,7.0,15.0,77,0.00,,,0.00,288.0,meteohub,2013-07-16 17:47:00,
2013-07-16 10:52:00,58.3,51.1,30.11,SW,215,8.0,14.0,77,0.00,,,0.00,278.0,meteohub,2013-07-16 17:52:00,
2013-07-16 10:57:00,58.6,51.4,30.11,West,272,4.0,14.0,77,0.00,,,0.00,290.0,meteohub,2013-07-16 17:57:00,
2013-07-16 11:02:00,58.6,50.7,30.12,SSW,211,4.0,14.0,75,0.00,,,0.00,281.0,meteohub,2013-07-16 18:02:00,
2013-07-16 11:07:00,59.0,51.4,30.12,WSW,254,5.0,14.0,76,0.00,,,0.00,287.0,meteohub,2013-07-16 18:07:00,
2013-07-16 11:12:00,59.2,51.3,30.12,West,272,5.0,14.0,75,0.00,,,0.00,271.0,meteohub,2013-07-16 18:12:00,
2013-07-16 11:14:00,59.2,51.3,30.11,SSW,209,6.0,14.0,75,0.00,,,0.00,329.0,meteohub,2013-07-16 18:14:00,
2013-07-16 11:22:00,59.5,51.3,30.12,WSW,243,8.0,12.0,74,0.00,,,0.00,336.0,meteohub,2013-07-16 18:22:00,
2013-07-16 11:30:00,59.7,51.4,30.12,West,264,8.0,12.0,74,0.00,,,0.00,390.0,meteohub,2013-07-16 18:30:00,
2013-07-16 11:35:00,60.1,51.4,30.12,West,273,5.0,13.0,73,0.00,,,0.00,369.0,meteohub,2013-07-16 18:35:00,
2013-07-16 11:40:00,60.3,51.6,30.12,WSW,243,4.0,15.0,73,0.00,,,0.00,364.0,meteohub,2013-07-16 18:40:00,
2013-07-16 11:45:00,60.4,51.8,30.12,WSW,257,5.0,15.0,73,0.00,,,0.00,387.0,meteohub,2013-07-16 18:45:00,
2013-07-16 11:50:00,61.0,52.0,30.12,SW,232,3.0,15.0,72,0.00,,,0.00,341.0,meteohub,2013-07-16 18:50:00,
2013-07-16 11:55:00,61.2,52.0,30.12,SW,223,4.0,13.0,72,0.00,,,0.00,327.0,meteohub,2013-07-16 18:55:00,
2013-07-16 12:01:00,60.6,51.6,30.12,WSW,244,4.0,14.0,72,0.00,,,0.00,374.0,meteohub,2013-07-16 19:01:00,
2013-07-16 12:06:00,60.6,52.0,30.12,SW,218,8.0,14.0,73,0.00,,,0.00,357.0,meteohub,2013-07-16 19:06:00,
2013-07-16 12:11:00,60.4,51.8,30.13,SW,234,9.0,14.0,73,0.00,,,0.00,378.0,meteohub,2013-07-16 19:11:00,
2013-07-16 12:16:00,60.6,52.0,30.13,WNW,297,7.0,13.0,73,0.00,,,0.00,376.0,meteohub,2013-07-16 19:16:00,
2013-07-16 12:21:00,61.2,52.0,30.12,WSW,241,6.0,14.0,72,0.00,,,0.00,461.0,meteohub,2013-07-16 19:21:00,
2013-07-16 12:27:00,62.1,52.2,30.12,West,265,6.0,14.0,70,0.00,,,0.00,468.0,meteohub,2013-07-16 19:27:00,
2013-07-16 12:32:00,62.2,52.0,30.13,WSW,250,5.0,14.0,69,0.00,,,0.00,519.0,meteohub,2013-07-16 19:32:00,
2013-07-16 12:37:00,62.4,52.2,30.12,WSW,242,9.0,14.0,69,0.00,,,0.00,396.0,meteohub,2013-07-16 19:37:00,
2013-07-16 12:42:00,63.0,52.7,30.12,WSW,252,8.0,14.0,69,0.00,,,0.00,422.0,meteohub,2013-07-16 19:42:00,
2013-07-16 12:47:00,63.1,52.9,30.12,WSW,245,7.0,13.0,69,0.00,,,0.00,422.0,meteohub,2013-07-16 19:47:00,
2013-07-16 12:53:00,63.7,52.9,30.13,WSW,248,8.0,14.0,68,0.00,,,0.00,422.0,meteohub,2013-07-16 19:53:00,
2013-07-16 12:58:00,64.2,53.4,30.12,West,265,5.0,14.0,68,0.00,,,0.00,455.0,meteohub,2013-07-16 19:58:00,
2013-07-16 13:03:00,65.3,53.2,30.12,South,173,1.0,14.0,65,0.00,,,0.00,1116.0,meteohub,2013-07-16 20:03:00,
2013-07-16 13:08:00,65.8,52.9,30.12,SW,226,6.0,13.0,63,0.00,,,0.00,610.0,meteohub,2013-07-16 20:08:00,
2013-07-16 13:14:00,65.1,52.7,30.12,WSW,245,14.0,14.0,64,0.00,,,0.00,1129.0,meteohub,2013-07-16 20:14:00,
2013-07-16 13:19:00,65.1,53.1,30.13,WSW,250,3.0,14.0,65,0.00,,,0.00,1143.0,meteohub,2013-07-16 20:19:00,
2013-07-16 13:24:00,65.7,52.7,30.12,WSW,238,6.0,14.0,63,0.00,,,0.00,1053.0,meteohub,2013-07-16 20:24:00,
2013-07-16 13:29:00,65.8,52.9,30.12,WSW,250,5.0,14.0,63,0.00,,,0.00,1021.0,meteohub,2013-07-16 20:29:00,
2013-07-16 13:34:00,66.4,53.4,30.12,SW,218,6.0,14.0,63,0.00,,,0.00,1014.0,meteohub,2013-07-16 20:34:00,
2013-07-16 13:39:00,66.4,53.4,30.12,SW,225,6.0,14.0,63,0.00,,,0.00,1014.0,meteohub,2013-07-16 20:39:00,
2013-07-16 13:44:00,65.8,52.9,30.12,SW,236,5.0,13.0,63,0.00,,,0.00,1016.0,meteohub,2013-07-16 20:44:00,
2013-07-16 13:50:00,65.8,53.2,30.12,WSW,238,8.0,12.0,64,0.00,,,0.00,1042.0,meteohub,2013-07-16 20:50:00,
2013-07-16 13:55:00,66.6,53.6,30.12,SW,224,12.0,12.0,63,0.00,,,0.00,1009.0,meteohub,2013-07-16 20:55:00,
2013-07-16 14:00:00,66.0,53.1,30.12,WNW,292,5.0,13.0,63,0.00,,,0.00,949.0,meteohub,2013-07-16 21:00:00,
2013-07-16 14:05:00,66.7,53.8,30.12,SW,227,7.0,17.0,63,0.00,,,0.00,942.0,meteohub,2013-07-16 21:05:00,
2013-07-16 14:10:00,67.3,53.8,30.12,SW,223,8.0,17.0,62,0.00,,,0.00,942.0,meteohub,2013-07-16 21:10:00,
2013-07-16 14:15:00,66.7,53.2,30.12,WSW,244,7.0,17.0,62,0.00,,,0.00,988.0,meteohub,2013-07-16 21:15:00,
2013-07-16 14:20:00,66.7,54.1,30.12,WSW,243,12.0,18.0,64,0.00,,,0.00,976.0,meteohub,2013-07-16 21:20:00,
2013-07-16 14:25:00,67.3,53.8,30.12,WSW,256,9.0,18.0,62,0.00,,,0.00,956.0,meteohub,2013-07-16 21:25:00,
2013-07-16 14:30:00,67.6,54.1,30.12,SW,234,9.0,13.0,62,0.00,,,0.00,956.0,meteohub,2013-07-16 21:30:00,
2013-07-16 14:35:00,67.1,53.6,30.12,WSW,241,3.0,15.0,62,0.00,,,0.00,926.0,meteohub,2013-07-16 21:35:00,
2013-07-16 14:40:00,67.8,54.3,30.12,SW,220,9.0,15.0,62,0.00,,,0.00,921.0,meteohub,2013-07-16 21:40:00,
2013-07-16 14:45:00,68.4,54.3,30.12,WSW,244,12.0,15.0,61,0.00,,,0.00,904.0,meteohub,2013-07-16 21:45:00,
2013-07-16 14:50:00,67.6,53.8,30.12,SW,215,10.0,13.0,61,0.00,,,0.00,896.0,meteohub,2013-07-16 21:50:00,
2013-07-16 14:55:00,67.6,54.1,30.12,SW,223,10.0,15.0,62,0.00,,,0.00,891.0,meteohub,2013-07-16 21:55:00,
2013-07-16 15:01:00,67.8,54.0,30.12,West,259,7.0,15.0,61,0.00,,,0.00,882.0,meteohub,2013-07-16 22:01:00,
2013-07-16 15:06:00,67.6,53.8,30.12,SW,231,7.0,13.0,61,0.00,,,0.00,877.0,meteohub,2013-07-16 22:06:00,
2013-07-16 15:11:00,67.3,53.8,30.12,WSW,257,6.0,13.0,62,0.00,,,0.00,870.0,meteohub,2013-07-16 22:11:00,
2013-07-16 15:16:00,66.9,53.4,30.12,WSW,245,11.0,14.0,62,0.00,,,0.00,861.0,meteohub,2013-07-16 22:16:00,
2013-07-16 15:21:00,67.1,53.6,30.12,WSW,246,3.0,14.0,62,0.00,,,0.00,854.0,meteohub,2013-07-16 22:21:00,
2013-07-16 15:26:00,67.3,53.8,30.12,SSW,207,4.0,15.0,62,0.00,,,0.00,844.0,meteohub,2013-07-16 22:26:00,
2013-07-16 15:31:00,67.8,54.0,30.12,WSW,246,5.0,15.0,61,0.00,,,0.00,838.0,meteohub,2013-07-16 22:31:00,
2013-07-16 15:36:00,68.5,54.5,30.12,SW,223,8.0,15.0,61,0.00,,,0.00,830.0,meteohub,2013-07-16 22:36:00,
2013-07-16 15:41:00,68.9,54.5,30.12,SSW,207,8.0,13.0,60,0.00,,,0.00,817.0,meteohub,2013-07-16 22:41:00,
2013-07-16 15:46:00,68.7,53.8,30.12,WSW,244,5.0,13.0,59,0.00,,,0.00,807.0,meteohub,2013-07-16 22:46:00,
2013-07-16 15:51:00,68.2,54.1,30.11,SW,215,11.0,13.0,61,0.00,,,0.00,798.0,meteohub,2013-07-16 22:51:00,
2013-07-16 15:56:00,67.8,54.0,30.11,WSW,244,8.0,14.0,61,0.00,,,0.00,788.0,meteohub,2013-07-16 22:56:00,
2013-07-16 16:01:00,68.2,53.8,30.11,WSW,237,9.0,14.0,60,0.00,,,0.00,779.0,meteohub,2013-07-16 23:01:00,
2013-07-16 16:06:00,68.0,54.0,30.11,SW,234,9.0,14.0,61,0.00,,,0.00,768.0,meteohub,2013-07-16 23:06:00,
2013-07-16 16:11:00,68.4,54.3,30.11,SSW,210,7.0,14.0,61,0.00,,,0.00,756.0,meteohub,2013-07-16 23:11:00,
2013-07-16 16:16:00,68.4,54.0,30.11,SW,236,4.0,16.0,60,0.00,,,0.00,747.0,meteohub,2013-07-16 23:16:00,
2013-07-16 16:21:00,67.8,54.0,30.11,WSW,250,5.0,16.0,61,0.00,,,0.00,735.0,meteohub,2013-07-16 23:21:00,
2013-07-16 16:27:00,68.4,54.3,30.11,West,259,6.0,15.0,61,0.00,,,0.00,721.0,meteohub,2013-07-16 23:27:00,
2013-07-16 16:32:00,68.4,54.3,30.11,SW,226,11.0,15.0,61,0.00,,,0.00,708.0,meteohub,2013-07-16 23:32:00,
2013-07-16 16:37:00,68.2,54.7,30.11,SW,224,9.0,15.0,62,0.00,,,0.00,696.0,meteohub,2013-07-16 23:37:00,
2013-07-16 16:42:00,68.5,55.0,30.11,SW,215,8.0,13.0,62,0.00,,,0.00,682.0,meteohub,2013-07-16 23:42:00,
2013-07-16 16:47:00,68.4,54.3,30.11,SW,218,8.0,14.0,61,0.00,,,0.00,671.0,meteohub,2013-07-16 23:47:00,
2013-07-16 16:52:00,68.2,54.1,30.11,WSW,248,9.0,14.0,61,0.00,,,0.00,657.0,meteohub,2013-07-16 23:52:00,
2013-07-16 16:57:00,68.4,54.9,30.11,South,185,8.0,13.0,62,0.00,,,0.00,643.0,meteohub,2013-07-16 23:57:00,
2013-07-16 17:02:00,68.0,54.9,30.11,WSW,250,7.0,14.0,63,0.00,,,0.00,629.0,meteohub,2013-07-17 00:02:00,
2013-07-16 17:07:00,68.0,54.5,30.11,WSW,238,6.0,14.0,62,0.00,,,0.00,617.0,meteohub,2013-07-17 00:07:00,
2013-07-16 17:12:00,67.8,54.7,30.11,SW,217,7.0,15.0,63,0.00,,,0.00,603.0,meteohub,2013-07-17 00:12:00,
2013-07-16 17:17:00,67.3,54.7,30.11,WSW,240,6.0,15.0,64,0.00,,,0.00,589.0,meteohub,2013-07-17 00:17:00,
2013-07-16 17:22:00,67.5,55.2,30.10,SW,235,4.0,15.0,65,0.00,,,0.00,578.0,meteohub,2013-07-17 00:22:00,
2013-07-16 17:27:00,67.1,54.5,30.10,SW,236,9.0,15.0,64,0.00,,,0.00,578.0,meteohub,2013-07-17 00:27:00,
2013-07-16 17:32:00,66.9,55.2,30.11,SW,225,6.0,15.0,66,0.00,,,0.00,577.0,meteohub,2013-07-17 00:32:00,
2013-07-16 17:37:00,66.6,54.9,30.10,West,265,10.0,15.0,66,0.00,,,0.00,568.0,meteohub,2013-07-17 00:37:00,
2013-07-16 17:42:00,66.4,54.7,30.10,SW,235,8.0,14.0,66,0.00,,,0.00,531.0,meteohub,2013-07-17 00:42:00,
2013-07-16 17:47:00,66.0,54.7,30.10,WSW,249,10.0,14.0,67,0.00,,,0.00,519.0,meteohub,2013-07-17 00:47:00,
2013-07-16 17:52:00,65.5,55.0,30.10,WSW,248,8.0,15.0,69,0.00,,,0.00,520.0,meteohub,2013-07-17 00:52:00,
2013-07-16 17:57:00,64.9,54.1,30.10,WSW,248,7.0,15.0,68,0.00,,,0.00,153.0,meteohub,2013-07-17 00:57:00,
2013-07-16 18:02:00,64.8,55.2,30.10,West,264,4.0,15.0,71,0.00,,,0.00,527.0,meteohub,2013-07-17 01:02:00,
2013-07-16 18:07:00,65.1,54.7,30.10,SW,234,8.0,13.0,69,0.00,,,0.00,520.0,meteohub,2013-07-17 01:07:00,
2013-07-16 18:12:00,64.2,54.3,30.11,WSW,250,11.0,14.0,70,0.00,,,0.00,353.0,meteohub,2013-07-17 01:12:00,
2013-07-16 18:17:00,63.5,54.3,30.10,SW,232,7.0,14.0,72,0.00,,,0.00,148.0,meteohub,2013-07-17 01:17:00,
2013-07-16 18:22:00,63.3,54.1,30.10,WSW,238,7.0,14.0,72,0.00,,,0.00,97.0,meteohub,2013-07-17 01:22:00,
2013-07-16 18:27:00,63.0,54.1,30.10,WSW,251,9.0,15.0,73,0.00,,,0.00,104.0,meteohub,2013-07-17 01:27:00,
2013-07-16 18:32:00,62.4,54.0,30.10,SW,231,14.0,15.0,74,0.00,,,0.00,118.0,meteohub,2013-07-17 01:32:00,
2013-07-16 18:37:00,62.1,53.6,30.11,West,263,10.0,15.0,74,0.00,,,0.00,109.0,meteohub,2013-07-17 01:37:00,
2013-07-16 18:42:00,61.5,54.0,30.10,WSW,251,7.0,15.0,76,0.00,,,0.00,134.0,meteohub,2013-07-17 01:42:00,
2013-07-16 18:47:00,61.2,53.6,30.11,SW,225,9.0,15.0,76,0.00,,,0.00,90.0,meteohub,2013-07-17 01:47:00,
2013-07-16 18:52:00,61.2,54.0,30.11,SW,225,9.0,15.0,77,0.00,,,0.00,86.0,meteohub,2013-07-17 01:52:00,
2013-07-16 18:57:00,61.2,54.0,30.11,SW,232,5.0,14.0,77,0.00,,,0.00,97.0,meteohub,2013-07-17 01:57:00,
2013-07-16 19:02:00,61.2,54.0,30.10,WSW,252,8.0,14.0,77,0.00,,,0.00,144.0,meteohub,2013-07-17 02:02:00,
2013-07-16 19:07:00,61.2,54.0,30.11,WSW,248,7.0,14.0,77,0.00,,,0.00,100.0,meteohub,2013-07-17 02:07:00,
2013-07-16 19:12:00,61.2,54.0,30.11,SW,236,4.0,12.0,77,0.00,,,0.00,84.0,meteohub,2013-07-17 02:12:00,
2013-07-16 19:17:00,61.0,54.1,30.11,SSW,210,5.0,12.0,78,0.00,,,0.00,202.0,meteohub,2013-07-17 02:17:00,
2013-07-16 19:22:00,60.6,53.8,30.11,West,262,6.0,13.0,78,0.00,,,0.00,65.0,meteohub,2013-07-17 02:22:00,
2013-07-16 19:27:00,60.3,53.4,30.11,WSW,241,8.0,13.0,78,0.00,,,0.00,47.0,meteohub,2013-07-17 02:27:00,
2013-07-16 19:32:00,60.1,53.6,30.11,WSW,237,9.0,13.0,79,0.00,,,0.00,47.0,meteohub,2013-07-17 02:32:00,
2013-07-16 19:37:00,59.7,53.6,30.11,SW,217,14.0,14.0,80,0.00,,,0.00,51.0,meteohub,2013-07-17 02:37:00,
2013-07-16 19:42:00,59.4,53.2,30.11,WSW,239,8.0,14.0,80,0.00,,,0.00,35.0,meteohub,2013-07-17 02:42:00,
2013-07-16 19:47:00,59.4,53.2,30.11,West,277,4.0,14.0,80,0.00,,,0.00,30.0,meteohub,2013-07-17 02:47:00,
2013-07-16 19:52:00,59.4,53.2,30.12,WSW,248,6.0,14.0,80,0.00,,,0.00,30.0,meteohub,2013-07-17 02:52:00,
2013-07-16 19:57:00,59.2,53.4,30.12,NW,323,8.0,15.0,81,0.00,,,0.00,21.0,meteohub,2013-07-17 02:57:00,
2013-07-16 20:02:00,58.8,53.1,30.12,SW,236,6.0,15.0,81,0.00,,,0.00,14.0,meteohub,2013-07-17 03:02:00,
2013-07-16 20:07:00,58.8,53.4,30.12,WSW,237,9.0,15.0,82,0.00,,,0.00,11.0,meteohub,2013-07-17 03:07:00,
2013-07-16 20:12:00,58.8,53.4,30.12,SW,236,13.0,13.0,82,0.00,,,0.00,7.0,meteohub,2013-07-17 03:12:00,
2013-07-16 20:17:00,58.6,53.2,30.12,SW,222,7.0,14.0,82,0.00,,,0.00,5.0,meteohub,2013-07-17 03:17:00,
2013-07-16 20:22:00,58.6,53.2,30.12,SSW,210,7.0,14.0,82,0.00,,,0.00,0.0,meteohub,2013-07-17 03:22:00,
2013-07-16 20:27:00,58.6,53.2,30.12,WSW,238,7.0,14.0,82,0.00,,,0.00,0.0,meteohub,2013-07-17 03:27:00,
2013-07-16 20:32:00,58.6,53.2,30.12,WSW,246,5.0,12.0,82,0.00,,,0.00,0.0,meteohub,2013-07-17 03:32:00,
2013-07-16 20:37:00,58.6,53.2,30.12,WSW,244,6.0,12.0,82,0.00,,,0.00,0.0,meteohub,2013-07-17 03:37:00,
2013-07-16 20:42:00,58.5,53.1,30.13,West,261,4.0,11.0,82,0.00,,,0.00,0.0,meteohub,2013-07-17 03:42:00,
2013-07-16 20:47:00,58.5,53.1,30.12,WSW,240,5.0,13.0,82,0.00,,,0.00,0.0,meteohub,2013-07-17 03:47:00,
2013-07-16 20:52:00,58.3,52.9,30.13,SW,215,7.0,14.0,82,0.00,,,0.00,0.0,meteohub,2013-07-17 03:52:00,
2013-07-16 20:57:00,58.3,52.9,30.12,SW,232,6.0,14.0,82,0.00,,,0.00,0.0,meteohub,2013-07-17 03:57:00,
2013-07-16 21:01:00,58.1,52.7,30.12,SSW,201,7.0,13.0,82,0.00,,,0.00,0.0,meteohub,2013-07-17 04:01:00,
2013-07-16 21:02:00,57.9,52.5,30.13,WSW,242,4.0,13.0,82,0.00,,,0.00,0.0,meteohub,2013-07-17 04:02:00,
2013-07-16 21:03:00,57.9,52.5,30.13,WSW,249,8.0,13.0,82,0.00,,,0.00,0.0,meteohub,2013-07-17 04:03:00,
2013-07-16 21:05:00,57.9,52.5,30.13,WSW,254,7.0,13.0,82,0.00,,,0.00,0.0,meteohub,2013-07-17 04:05:00,
2013-07-16 21:10:00,57.9,52.5,30.13,WSW,238,8.0,13.0,82,0.00,,,0.00,0.0,meteohub,2013-07-17 04:10:00,
2013-07-16 21:15:00,57.7,52.3,30.13,SSW,209,9.0,13.0,82,0.00,,,0.00,0.0,meteohub,2013-07-17 04:15:00,
2013-07-16 21:20:00,57.7,52.3,30.13,SW,228,10.0,12.0,82,0.00,,,0.00,0.0,meteohub,2013-07-17 04:20:00,
2013-07-16 21:25:00,57.9,52.7,30.13,West,270,4.0,17.0,83,0.00,,,0.00,0.0,meteohub,2013-07-17 04:25:00,
2013-07-16 21:30:00,57.9,52.7,30.14,SSW,210,7.0,17.0,83,0.00,,,0.00,0.0,meteohub,2013-07-17 04:30:00,
2013-07-16 21:35:00,57.9,52.7,30.14,WSW,255,5.0,17.0,83,0.00,,,0.00,0.0,meteohub,2013-07-17 04:35:00,
2013-07-16 21:40:00,57.9,52.7,30.14,West,278,9.0,14.0,83,0.00,,,0.00,0.0,meteohub,2013-07-17 04:40:00,
2013-07-16 21:45:00,58.1,52.9,30.14,WSW,248,6.0,13.0,83,0.00,,,0.00,0.0,meteohub,2013-07-17 04:45:00,
2013-07-16 21:50:00,57.9,52.7,30.15,West,264,3.0,13.0,83,0.00,,,0.00,0.0,meteohub,2013-07-17 04:50:00,
2013-07-16 21:55:00,57.9,52.7,30.15,WSW,239,8.0,13.0,83,0.00,,,0.00,0.0,meteohub,2013-07-17 04:55:00,
2013-07-16 21:57:00,57.9,52.7,30.15,SSW,209,5.0,13.0,83,0.00,,,0.00,0.0,meteohub,2013-07-17 04:57:00,
2013-07-16 21:59:00,57.9,52.7,30.15,WSW,238,5.0,13.0,83,0.00,,,0.00,0.0,meteohub,2013-07-17 04:59:00,
2013-07-16 22:04:00,57.9,52.7,30.15,WSW,238,7.0,12.0,83,0.00,,,0.00,0.0,meteohub,2013-07-17 05:04:00,
2013-07-16 22:09:00,57.9,52.5,30.16,West,263,8.0,12.0,82,0.00,,,0.00,0.0,meteohub,2013-07-17 05:09:00,
2013-07-16 22:14:00,57.9,52.5,30.16,SSW,197,9.0,13.0,82,0.00,,,0.00,0.0,meteohub,2013-07-17 05:14:00,
2013-07-16 22:19:00,57.9,52.7,30.16,SW,236,10.0,13.0,83,0.00,,,0.00,0.0,meteohub,2013-07-17 05:19:00,
2013-07-16 22:24:00,57.9,52.5,30.16,SW,221,7.0,13.0,82,0.00,,,0.00,0.0,meteohub,2013-07-17 05:24:00,
2013-07-16 22:29:00,57.9,52.5,30.15,SSW,211,7.0,11.0,82,0.00,,,0.00,0.0,meteohub,2013-07-17 05:29:00,
2013-07-16 22:34:00,57.9,52.5,30.16,SW,217,5.0,12.0,82,0.00,,,0.00,0.0,meteohub,2013-07-17 05:34:00,
2013-07-16 22:39:00,57.9,52.5,30.16,WSW,255,6.0,12.0,82,0.00,,,0.00,0.0,meteohub,2013-07-17 05:39:00,
2013-07-16 22:44:00,57.9,52.5,30.16,WSW,248,5.0,12.0,82,0.00,,,0.00,0.0,meteohub,2013-07-17 05:44:00,
2013-07-16 22:49:00,57.9,52.7,30.16,WSW,238,3.0,12.0,83,0.00,,,0.00,0.0,meteohub,2013-07-17 05:49:00,
2013-07-16 22:55:00,57.9,52.7,30.16,WSW,242,6.0,10.0,83,0.00,,,0.00,0.0,meteohub,2013-07-17 05:55:00,
2013-07-16 23:00:00,57.9,52.7,30.16,WSW,244,2.0,13.0,83,0.00,,,0.00,0.0,meteohub,2013-07-17 06:00:00,
2013-07-16 23:05:00,57.9,52.7,30.16,WSW,241,4.0,13.0,83,0.00,,,0.00,0.0,meteohub,2013-07-17 06:05:00,
2013-07-16 23:10:00,58.1,52.9,30.16,West,269,4.0,13.0,83,0.00,,,0.00,0.0,meteohub,2013-07-17 06:10:00,
2013-07-16 23:15:00,58.1,52.9,30.16,SW,225,3.0,9.0,83,0.00,,,0.00,0.0,meteohub,2013-07-17 06:15:00,
2013-07-16 23:20:00,58.1,52.9,30.16,WSW,254,5.0,11.0,83,0.00,,,0.00,0.0,meteohub,2013-07-17 06:20:00,
2013-07-16 23:25:00,58.1,52.9,30.16,SSW,195,7.0,11.0,83,0.00,,,0.00,0.0,meteohub,2013-07-17 06:25:00,
2013-07-16 23:30:00,57.9,52.7,30.16,West,259,4.0,10.0,83,0.00,,,0.00,0.0,meteohub,2013-07-17 06:30:00,
2013-07-16 23:35:00,57.9,52.7,30.16,WSW,249,5.0,11.0,83,0.00,,,0.00,0.0,meteohub,2013-07-17 06:35:00,
2013-07-16 23:40:00,57.9,52.7,30.16,WSW,238,4.0,11.0,83,0.00,,,0.00,0.0,meteohub,2013-07-17 06:40:00,
2013-07-16 23:45:00,57.9,52.7,30.16,West,271,2.0,11.0,83,0.00,,,0.00,0.0,meteohub,2013-07-17 06:45:00,
2013-07-16 23:50:00,57.9,52.7,30.16,SW,219,4.0,10.0,83,0.00,,,0.00,0.0,meteohub,2013-07-17 06:50:00,
2013-07-16 23:55:00,58.1,52.9,30.16,WSW,258,4.0,8.0,83,0.00,,,0.00,0.0,meteohub,2013-07-17 06:55:00,